Maxwell AFB, AL

9:45 PM CDT on October 16, 2017 (GMT -0500)
Maxwell Air Force Base

Weather History for KMXF - March, 2013

Change the Weather History Date:

Wednesday, March 13, 2013

  Actual Average Record
Temperature  
Mean Temperature 48 °F -  
Max Temperature 61 °F 67 °F 84 °F (2006)
Min Temperature 36 °F 46 °F 30 °F (1998)
Degree Days  
Heating Degree Days 17    
Moisture  
Dew Point 28 °F    
Average Humidity 49    
Maximum Humidity 91    
Minimum Humidity 21    
Precipitation  
Precipitation 0.00 in - - ()
Sea Level Pressure  
Sea Level Pressure 30.26 in    
Wind  
Wind Speed 7 mph (WNW)    
Max Wind Speed 17 mph    
Max Gust Speed 24 mph    
Visibility 10 miles    
Events      
Averages and records for this station are not official NWS values.
T = Trace of Precipitation, MM = Missing Value Source: NWS Daily Summary

Daily Weather History Graph

Daily Weather History Graph

Search for Another Location

Airport or City:

Trip Planner

Search our weather history database for the weather conditions in past years. The results will help you decide how hot, cold, wet, or windy it might be!

Date:

Astronomy

Mar. 13, 2013 Rise Set
Actual Time 6:57 AM CDT 6:52 PM CDT
Civil Twilight 6:33 AM CDT 7:16 PM CDT
Nautical Twilight 6:04 AM CDT 7:45 PM CDT
Astronomical Twilight 5:36 AM CDT 8:13 PM CDT
Moon 7:45 AM CDT (3/13) 8:57 PM CDT (3/13)
Length of Visible Light 12h 43m
Length of Day
11h 54m
Waxing Crescent, 4% of the Moon is Illuminated
Mar 13
Waxing Crescent
Mar 19
First Quarter
Mar 27
Full
Apr 2
Last Quarter
Apr 10
New

Hourly Weather History & Observations

Time (CDT) Temp. Windchill Dew Point Humidity Pressure Visibility Wind Dir Wind Speed Gust Speed Precip Events Conditions
12:58 AM 45.1 °F 42.8 °F 34.5 °F 66% 30.19 in 10.0 mi NW 4.6 mph - N/A   Clear
1:58 AM 44.2 °F 41.8 °F 33.8 °F 67% 30.19 in 10.0 mi NW 4.6 mph - N/A   Clear
2:58 AM 41.9 °F 40.0 °F 36.9 °F 82% 30.18 in 10.0 mi WNW 3.5 mph - N/A   Clear
3:58 AM 41.4 °F 39.4 °F 35.2 °F 79% 30.18 in 10.0 mi West 3.5 mph - N/A   Clear
4:58 AM 37.0 °F - 33.8 °F 88% 30.20 in 10.0 mi West 2.3 mph - N/A   Clear
5:58 AM 38.3 °F 35.9 °F 34.9 °F 87% 30.22 in 10.0 mi SW 3.5 mph - N/A   Clear
6:58 AM 36.1 °F - 33.6 °F 91% 30.25 in 10.0 mi WSW 2.3 mph - N/A   Clear
7:58 AM 41.2 °F - 36.0 °F 82% 30.26 in 10.0 mi WSW 2.3 mph - N/A   Clear
8:58 AM 47.7 °F - 33.6 °F 58% 30.29 in 10.0 mi WNW 4.6 mph - N/A   Clear
9:58 AM 54.5 °F - 31.8 °F 42% 30.29 in 10.0 mi NW 13.8 mph - N/A   Clear
10:58 AM 56.8 °F - 29.7 °F 35% 30.30 in 10.0 mi NW 12.7 mph 18.4 mph N/A   Clear
11:58 AM 56.8 °F - 26.1 °F 31% 30.30 in 10.0 mi NW 12.7 mph 21.9 mph N/A   Clear
12:58 PM 58.8 °F - 24.4 °F 27% 30.29 in 10.0 mi WNW 15.0 mph 21.9 mph N/A   Clear
1:58 PM 59.5 °F - 21.9 °F 23% 30.26 in 10.0 mi WNW 12.7 mph - N/A   Clear
2:58 PM 60.1 °F - 20.8 °F 22% 30.25 in 10.0 mi NW 17.3 mph 23.0 mph N/A   Clear
3:58 PM 60.6 °F - 19.8 °F 21% 30.25 in 10.0 mi NW 17.3 mph 24.2 mph N/A   Clear
4:58 PM 60.1 °F - 21.7 °F 23% 30.25 in 10.0 mi WNW 11.5 mph 18.4 mph N/A   Clear
5:58 PM 58.8 °F - 20.8 °F 23% 30.25 in 10.0 mi WNW 11.5 mph 19.6 mph N/A   Clear
6:58 PM 55.6 °F - 20.5 °F 26% 30.27 in 10.0 mi WNW 12.7 mph 19.6 mph N/A   Clear
7:58 PM 52.9 °F - 21.6 °F 29% 30.28 in 10.0 mi NW 10.4 mph - N/A   Clear
8:58 PM 49.5 °F - 23.2 °F 36% 30.29 in 10.0 mi WNW 6.9 mph - N/A   Clear
9:58 PM 46.8 °F - 24.3 °F 41% 30.32 in 10.0 mi NW 5.8 mph - N/A   Clear
10:58 PM 45.3 °F 41.6 °F 23.9 °F 43% 30.34 in 10.0 mi WNW 6.9 mph - N/A   Clear
11:58 PM 42.4 °F 37.0 °F 25.7 °F 52% 30.34 in 10.0 mi NNW 9.2 mph - N/A   Clear